Location: Home
(51.5204°N, 2.5456°W)
Time: 20:10:59
(UTC+00:00)

STRAND 1 - Pass Details

Date: 13 December 2019
Orbit: 768 x 781 km, 98.5° (Epoch: 28 January)

Event Time Altitude Azimuth Distance (km) Brightness Sun altitude
Rises 07:15:49 0° 184° (S) 3,244 ? -7.6°
Reaches altitude 10° 07:18:14 10° 191° (S) 2,319 ? -7.2°
Maximum altitude 07:23:05 42° 262° (W) 1,090 ? -6.6°
Drops below altitude 10° 07:27:58 10° 334° (NNW) 2,328 ? -5.9°
Sets 07:30:24 0° 341° (NNW) 3,258 ? -5.6°
